Fort Lauderdale, FL

7:26 PM EDT on May 21, 2018 (GMT -0400)
Fort Lauderdale Executive

Weather History for KFXE - March, 2014

Change the Weather History Date:

Friday, March 21, 2014

  Actual Average Record
Temperature  
Mean Temperature 72 °F -  
Max Temperature 82 °F 82 °F 91 °F (2003)
Min Temperature 61 °F 62 °F 42 °F (1960)
Cooling Degree Days 6    
Growing Degree Days 22 (Base 50)    
Moisture  
Dew Point 64 °F    
Average Humidity 83    
Maximum Humidity 97    
Minimum Humidity 60    
Precipitation  
Precipitation 0.00 in - - ()
Sea Level Pressure  
Sea Level Pressure 30.03 in    
Wind  
Wind Speed 5 mph (SSE)    
Max Wind Speed 17 mph    
Max Gust Speed 23 mph    
Visibility 6 miles    
Events Fog    
Averages and records for this station are not official NWS values.
T = Trace of Precipitation, MM = Missing Value Source: NWS Daily Summary

Daily Weather History Graph

Daily Weather History Graph

Search for Another Location

Airport or City:

Astronomy

Mar. 21, 2014 Rise Set
Actual Time 7:23 AM EDT 7:32 PM EDT
Civil Twilight 7:00 AM EDT 7:55 PM EDT
Nautical Twilight 6:33 AM EDT 8:22 PM EDT
Astronomical Twilight 6:06 AM EDT 8:49 PM EDT
Moon No Moon Rise 10:39 AM EDT
Length of Visible Light 12h 54m
Length of Day
12h 08m
Waning Gibbous, 75% of the Moon is Illuminated
Mar 21
Waning Gibbous
Mar 23
Last Quarter
Mar 30
New
Apr 7
First Quarter
Apr 15
Full

Hourly Weather History & Observations

Time (EDT) Temp. Heat Index Dew Point Humidity Pressure Visibility Wind Dir Wind Speed Gust Speed Precip Events Conditions
12:53 AM 66.0 °F - 61.0 °F 84% 30.02 in 10.0 mi WSW 5.8 mph - N/A   Clear
1:53 AM 66.0 °F - 61.0 °F 84% 30.02 in 10.0 mi WSW 4.6 mph - N/A   Clear
2:53 AM 64.0 °F - 61.0 °F 90% 30.01 in 10.0 mi WSW 5.8 mph - N/A   Clear
3:53 AM 64.0 °F - 62.1 °F 93% 30.00 in 9.0 mi WNW 3.5 mph - N/A   Clear
4:53 AM 63.0 °F - 61.0 °F 93% 29.98 in 8.0 mi Calm Calm - N/A   Clear
5:39 AM 62.1 °F - 61.0 °F 96% 29.98 in 1.5 mi Calm Calm - N/A   Clear
5:41 AM 62.1 °F - 60.1 °F 93% 29.98 in 0.8 mi Calm Calm - N/A   Mist
5:51 AM 62.6 °F - 60.8 °F 94% 29.98 in 2.0 mi Calm Calm - N/A   Partly Cloudy
5:53 AM 62.1 °F - 60.1 °F 93% 29.99 in 4.0 mi Calm Calm - N/A   Partly Cloudy
6:53 AM 61.0 °F - 60.1 °F 97% 30.01 in 5.0 mi Calm Calm - N/A   Mostly Cloudy
7:40 AM 64.0 °F - 62.1 °F 93% 30.01 in 1.8 mi SSW 4.6 mph - N/A   Overcast
7:49 AM 64.4 °F - 62.6 °F 94% 30.01 in 2.0 mi SSW 3.5 mph - N/A   Overcast
7:53 AM 64.0 °F - 62.1 °F 93% 30.02 in 2.0 mi SSW 4.6 mph - N/A   Overcast
7:57 AM 64.0 °F - 62.1 °F 93% 30.01 in 1.8 mi South 3.5 mph - N/A   Overcast
8:08 AM 64.0 °F - 62.1 °F 93% 30.01 in 0.5 mi SSW 3.5 mph - N/A Fog Fog
8:48 AM 64.4 °F - 62.6 °F 94% 30.03 in 1.5 mi SW 3.5 mph - N/A   Overcast
8:53 AM 64.9 °F - 63.0 °F 93% 30.04 in 0.8 mi SW 3.5 mph - N/A   Overcast
9:19 AM 66.0 °F - 64.0 °F 93% 30.03 in 1.8 mi SSW 3.5 mph - N/A   Overcast
9:26 AM 66.0 °F - 64.0 °F 93% 30.03 in 2.0 mi Calm Calm - N/A   Overcast
9:41 AM 66.0 °F - 64.0 °F 93% 30.04 in 1.8 mi Calm Calm - N/A   Overcast
9:51 AM 66.2 °F - 64.4 °F 94% 30.04 in 2.0 mi Calm Calm - N/A   Overcast
9:53 AM 66.0 °F - 64.0 °F 93% 30.05 in 2.0 mi Calm Calm - N/A   Overcast
10:08 AM 68.0 °F - 64.9 °F 90% 30.04 in 3.0 mi Calm Calm - N/A   Overcast
10:26 AM 70.0 °F - 64.9 °F 84% 30.05 in 5.0 mi Calm Calm - N/A   Haze
10:53 AM 73.9 °F - 66.0 °F 76% 30.07 in 7.0 mi Calm Calm - N/A   Mostly Cloudy
11:00 AM 73.9 °F - 66.0 °F 76% 30.06 in 7.0 mi Calm Calm - N/A   Scattered Clouds
11:53 AM 80.1 °F 82.3 °F 66.9 °F 64% 30.07 in 10.0 mi ESE 11.5 mph - N/A   Scattered Clouds
12:53 PM 81.0 °F 83.8 °F 68.0 °F 65% 30.07 in 10.0 mi East 16.1 mph 23.0 mph N/A   Scattered Clouds
1:53 PM 81.0 °F 83.3 °F 66.9 °F 62% 30.05 in 10.0 mi ESE 16.1 mph - N/A   Scattered Clouds
2:53 PM 81.0 °F 83.3 °F 66.9 °F 62% 30.04 in 10.0 mi SE 15.0 mph 23.0 mph N/A   Scattered Clouds
3:53 PM 82.0 °F 84.5 °F 66.9 °F 60% 30.03 in 10.0 mi ESE 15.0 mph - N/A   Scattered Clouds
4:53 PM 81.0 °F 83.3 °F 66.9 °F 62% 30.03 in 10.0 mi ESE 15.0 mph 21.9 mph N/A   Scattered Clouds
5:53 PM 80.1 °F 82.7 °F 68.0 °F 67% 30.03 in 10.0 mi East 17.3 mph - N/A   Scattered Clouds
6:53 PM 77.0 °F - 68.0 °F 74% 30.03 in 10.0 mi ESE 15.0 mph - N/A   Scattered Clouds
7:53 PM 77.0 °F - 66.9 °F 71% 30.04 in 10.0 mi ESE 12.7 mph - N/A   Scattered Clouds
8:53 PM 75.9 °F - 66.9 °F 74% 30.05 in 10.0 mi ESE 13.8 mph - N/A   Scattered Clouds
9:53 PM 75.9 °F - 66.0 °F 71% 30.06 in 10.0 mi ESE 11.5 mph - N/A   Partly Cloudy
10:53 PM 75.9 °F - 64.9 °F 69% 30.07 in 10.0 mi ESE 13.8 mph - N/A   Mostly Cloudy
11:53 PM 75.9 °F - 66.0 °F 71% 30.07 in 10.0 mi ESE 11.5 mph - N/A   Scattered Clouds